When you browse on this site, cookies collect data to enhance your experience and personalize the content and advertising you see.
Visit our Privacy Policy to learn more. By continuing to use the site, you agree to this use of cookies and data.
  • In Österreich
  • Länderverzeichnis
  • Für 7 Tage
  • Wassertemperatur
  • Wetterkarte
  • News
  • Widgets
  • user-avatar
    Anmelden

    Stündliche Wetter Hlukhiv Pershyi

    Heute, 23 September, Montag

    Zeit Temperatur Niederschläge Wind Luftdruck Luftfeuchtigkeit
    00:00 +10°C° 0 mm 3 m/S 745 mmHg 92%
    01:00 +9°C° 0 mm 3 m/S 745 mmHg 92%
    02:00 +9°C° 0 mm 3 m/S 745 mmHg 89%
    03:00 +9°C° 0 mm 3 m/S 745 mmHg 85%
    04:00 +8°C° 0 mm 3 m/S 746 mmHg 81%
    05:00 +7°C° 0 mm 4 m/S 746 mmHg 76%
    06:00 +7°C° 0 mm 4 m/S 746 mmHg 74%
    07:00 +7°C° 0 mm 4 m/S 747 mmHg 72%
    08:00 +7°C° 0 mm 4 m/S 748 mmHg 68%
    09:00 +7°C° 0 mm 4 m/S 748 mmHg 64%
    10:00 +8°C° 0 mm 4 m/S 748 mmHg 60%
    11:00 +10°C° 0 mm 4 m/S 748 mmHg 56%
    12:00 +11°C° 0 mm 3 m/S 748 mmHg 51%
    13:00 +12°C° 0 mm 3 m/S 748 mmHg 47%
    14:00 +13°C° 0 mm 3 m/S 748 mmHg 42%
    15:00 +13°C° 0 mm 2 m/S 748 mmHg 43%
    16:00 +13°C° 0 mm 2 m/S 748 mmHg 43%
    17:00 +12°C° 0 mm 2 m/S 748 mmHg 44%
    18:00 +9°C° 0 mm 2 m/S 748 mmHg 46%
    19:00 +8°C° 0 mm 2 m/S 748 mmHg 48%
    20:00 +6°C° 0 mm 2 m/S 749 mmHg 50%
    21:00 +5°C° 0 mm 2 m/S 749 mmHg 53%
    22:00 +4°C° 0 mm 3 m/S 749 mmHg 57%
    23:00 +3°C° 0 mm 3 m/S 749 mmHg 60%

    Morgen, 24 September, Dienstag

    Zeit Temperatur Niederschläge Wind Luftdruck Luftfeuchtigkeit
    00:00 +3°C° 0 mm 3 m/S 749 mmHg 63%
    01:00 +3°C° 0 mm 2 m/S 749 mmHg 66%
    02:00 +3°C° 0 mm 2 m/S 749 mmHg 69%
    03:00 +2°C° 0 mm 2 m/S 749 mmHg 72%
    04:00 +2°C° 0 mm 2 m/S 749 mmHg 74%
    05:00 +2°C° 0 mm 2 m/S 749 mmHg 77%
    06:00 +3°C° 0 mm 2 m/S 749 mmHg 71%
    07:00 +4°C° 0 mm 2 m/S 749 mmHg 66%
    08:00 +6°C° 0 mm 2 m/S 749 mmHg 60%
    09:00 +8°C° 0 mm 2 m/S 749 mmHg 53%
    10:00 +10°C° 0 mm 2 m/S 749 mmHg 45%
    11:00 +12°C° 0 mm 3 m/S 749 mmHg 38%
    12:00 +13°C° 0 mm 2 m/S 748 mmHg 35%
    13:00 +14°C° 0 mm 2 m/S 748 mmHg 33%
    14:00 +15°C° 0 mm 2 m/S 748 mmHg 30%
    15:00 +14°C° 0 mm 2 m/S 747 mmHg 34%
    16:00 +13°C° 0 mm 2 m/S 747 mmHg 37%
    17:00 +13°C° 0 mm 2 m/S 747 mmHg 41%
    18:00 +10°C° 0 mm 2 m/S 747 mmHg 44%
    19:00 +8°C° 0 mm 3 m/S 747 mmHg 47%
    20:00 +5°C° 0 mm 3 m/S 747 mmHg 49%
    21:00 +5°C° 0 mm 3 m/S 747 mmHg 49%
    22:00 +4°C° 0 mm 3 m/S 747 mmHg 49%
    23:00 +4°C° 0 mm 3 m/S 747 mmHg 49%

    übermorgen, 25 September, Mittwoch

    Zeit Temperatur Niederschläge Wind Luftdruck Luftfeuchtigkeit
    00:00 +3°C° 0 mm 3 m/S 747 mmHg 50%
    01:00 +3°C° 0 mm 3 m/S 747 mmHg 50%
    02:00 +3°C° 0 mm 3 m/S 747 mmHg 50%
    03:00 +2°C° 0 mm 3 m/S 747 mmHg 52%
    04:00 +2°C° 0 mm 3 m/S 747 mmHg 54%
    05:00 +2°C° 0 mm 3 m/S 747 mmHg 55%
    06:00 +4°C° 0 mm 3 m/S 747 mmHg 53%
    07:00 +5°C° 0 mm 4 m/S 747 mmHg 51%
    08:00 +7°C° 0 mm 4 m/S 746 mmHg 49%
    09:00 +10°C° 0 mm 4 m/S 746 mmHg 45%
    10:00 +12°C° 0 mm 5 m/S 746 mmHg 41%
    11:00 +14°C° 0 mm 5 m/S 746 mmHg 38%
    12:00 +15°C° 0 mm 5 m/S 746 mmHg 38%
    13:00 +15°C° 0 mm 4 m/S 745 mmHg 39%
    14:00 +17°C° 0 mm 4 m/S 745 mmHg 39%
    15:00 +17°C° 0 mm 4 m/S 744 mmHg 44%
    16:00 +16°C° 0 mm 3 m/S 744 mmHg 48%
    17:00 +14°C° 0 mm 3 m/S 744 mmHg 52%
    18:00 +13°C° 0.1 mm 3 m/S 744 mmHg 55%
    19:00 +13°C° 0.1 mm 4 m/S 744 mmHg 57%
    20:00 +12°C° 0.1 mm 4 m/S 744 mmHg 60%
    21:00 +12°C° 0.3 mm 4 m/S 744 mmHg 65%
    22:00 +11°C° 0.3 mm 3 m/S 743 mmHg 69%
    23:00 +11°C° 0.3 mm 3 m/S 743 mmHg 74%

    26 September, Donnerstag

    Zeit Temperatur Niederschläge Wind Luftdruck Luftfeuchtigkeit
    00:00 +11°C° 0.2 mm 3 m/S 743 mmHg 80%
    01:00 +11°C° 0.2 mm 3 m/S 743 mmHg 85%
    02:00 +13°C° 0.2 mm 2 m/S 743 mmHg 91%
    03:00 +12°C° 0.9 mm 3 m/S 743 mmHg 93%
    04:00 +11°C° 0.9 mm 3 m/S 743 mmHg 94%
    05:00 +11°C° 0.9 mm 3 m/S 743 mmHg 96%
    06:00 +11°C° 1 mm 4 m/S 743 mmHg 95%
    07:00 +12°C° 1 mm 5 m/S 743 mmHg 94%
    08:00 +12°C° 1 mm 5 m/S 743 mmHg 93%
    09:00 +12°C° 0.5 mm 5 m/S 743 mmHg 92%
    10:00 +12°C° 0.5 mm 5 m/S 743 mmHg 91%
    11:00 +12°C° 0.5 mm 5 m/S 743 mmHg 90%
    12:00 +13°C° 0.2 mm 5 m/S 743 mmHg 88%
    13:00 +13°C° 0.2 mm 6 m/S 743 mmHg 87%
    14:00 +13°C° 0.2 mm 6 m/S 743 mmHg 85%
    15:00 +13°C° 0 mm 5 m/S 743 mmHg 85%
    16:00 +13°C° 0 mm 5 m/S 743 mmHg 84%
    17:00 +13°C° 0 mm 4 m/S 743 mmHg 84%
    18:00 +12°C° 0 mm 4 m/S 743 mmHg 85%
    19:00 +12°C° 0 mm 4 m/S 744 mmHg 87%
    20:00 +11°C° 0 mm 3 m/S 744 mmHg 88%
    21:00 +11°C° 0 mm 3 m/S 744 mmHg 89%
    22:00 +11°C° 0 mm 3 m/S 744 mmHg 89%
    23:00 +10°C° 0 mm 2 m/S 744 mmHg 90%

    27 September, Freitag

    Zeit Temperatur Niederschläge Wind Luftdruck Luftfeuchtigkeit
    00:00 +12°C° 0 mm 2 m/S 744 mmHg 90%
    01:00 +12°C° 0 mm 2 m/S 744 mmHg 91%
    02:00 +12°C° 0 mm 2 m/S 744 mmHg 91%
    03:00 +12°C° 0 mm 2 m/S 744 mmHg 91%
    04:00 +12°C° 0 mm 1 m/S 745 mmHg 92%
    05:00 +12°C° 0 mm 1 m/S 745 mmHg 93%
    06:00 +12°C° 0 mm 1 m/S 745 mmHg 91%
    07:00 +12°C° 0 mm 1 m/S 745 mmHg 90%
    08:00 +12°C° 0 mm 1 m/S 745 mmHg 89%
    09:00 +13°C° 0 mm 1 m/S 745 mmHg 87%
    10:00 +13°C° 0 mm 2 m/S 746 mmHg 84%
    11:00 +14°C° 0 mm 2 m/S 746 mmHg 81%
    12:00 +14°C° 0 mm 2 m/S 746 mmHg 80%
    13:00 +14°C° 0 mm 2 m/S 746 mmHg 78%
    14:00 +15°C° 0 mm 1 m/S 746 mmHg 76%
    15:00 +15°C° 0 mm 1 m/S 746 mmHg 77%
    16:00 +14°C° 0 mm 1 m/S 746 mmHg 78%
    17:00 +14°C° 0 mm 2 m/S 746 mmHg 79%
    18:00 +14°C° 0 mm 1 m/S 747 mmHg 81%
    19:00 +13°C° 0 mm 1 m/S 747 mmHg 83%
    20:00 +13°C° 0 mm 1 m/S 747 mmHg 85%
    21:00 +13°C° 0 mm 1 m/S 747 mmHg 85%
    22:00 +13°C° 0 mm 1 m/S 748 mmHg 84%
    23:00 +13°C° 0 mm 1 m/S 748 mmHg 84%

    28 September, Samstag

    Zeit Temperatur Niederschläge Wind Luftdruck Luftfeuchtigkeit
    00:00 +12°C° 0 mm 1 m/S 748 mmHg 84%
    01:00 +12°C° 0 mm 1 m/S 748 mmHg 84%
    02:00 +12°C° 0 mm 1 m/S 748 mmHg 84%
    03:00 +11°C° 0 mm 1 m/S 748 mmHg 85%
    04:00 +11°C° 0 mm 1 m/S 748 mmHg 86%
    05:00 +11°C° 0 mm 1 m/S 748 mmHg 87%
    06:00 +11°C° 0 mm 1 m/S 748 mmHg 84%
    07:00 +12°C° 0 mm 1 m/S 748 mmHg 82%
    08:00 +12°C° 0 mm 1 m/S 748 mmHg 80%
    09:00 +14°C° 0 mm 2 m/S 748 mmHg 73%
    10:00 +15°C° 0 mm 2 m/S 748 mmHg 67%
    11:00 +16°C° 0 mm 2 m/S 749 mmHg 60%
    12:00 +17°C° 0 mm 2 m/S 748 mmHg 59%
    13:00 +18°C° 0 mm 2 m/S 748 mmHg 58%
    14:00 +19°C° 0 mm 3 m/S 748 mmHg 57%
    15:00 +18°C° 0 mm 2 m/S 747 mmHg 62%
    16:00 +18°C° 0 mm 2 m/S 747 mmHg 67%
    17:00 +17°C° 0 mm 2 m/S 747 mmHg 71%
    18:00 +16°C° 0 mm 2 m/S 747 mmHg 74%
    19:00 +16°C° 0 mm 2 m/S 747 mmHg 77%
    20:00 +14°C° 0 mm 3 m/S 747 mmHg 79%
    21:00 +14°C° 0 mm 3 m/S 747 mmHg 81%
    22:00 +13°C° 0 mm 3 m/S 747 mmHg 83%
    23:00 +13°C° 0 mm 3 m/S 747 mmHg 85%
    Mehr zeigen